Flag for Russia Weather past 2 weeks in Nizhny Novgorod, Russia

Now
75 °F

Sunny.


Feels Like: 78 °F
Forecast: 62 / 89 °F
Wind: 6 mph from South

Location: Nizhny Novgorod/Strigino

Current Time: May 30, 2015 at 7:57:02 AM

Latest Report: May 30, 2015 at 7:30 AM


Visibility: 10 mi

Pressure: 29.83 "Hg

Humidity: 47%

Dew point: 54 °F

Location of Nizhny NovgorodLocation

Historic Weather in Nizhny Novgorod — Graph

°F

Nizhny Novgorod temperature yesterday

Maximum temperature yesterday: 90 °F (at 2:30 PM)
Minimum temperature yesterday: 57 °F (at 2:00 AM)
Average temperature yesterday: 77 °F

Past Weeks' High & Low Weather Summary

 TemperatureHumidityPressure
High90 °F (May 29, 2:30 PM)100% (May 18, 5:00 AM)30.12 "Hg (May 18, 5:00 AM)
Low37 °F (May 17, 1:30 AM)20% (May 27, 2:30 PM)29.21 "Hg (May 18, 2:30 AM)
Average61 °F66%29.80 "Hg
* Reported May 15 6:00 AM — May 30 6:30 AM, Nizhny Novgorod, Weather by CustomWeather, © 2015

Note: Actual official high and low records may vary slightly from our data, if they occured in-between our weather recording intervals... More about our weather records

Advertising

Nizhny Novgorod weather history for previous 24 hours

 ConditionsComfort  
Time TempWeatherWind HumidityBarometerVisibility
6:30 AM
Sat, May 30
73 °FSunny.10 mph47%29.83 "Hg10 mi
6:00 AM72 °FSunny.8 mph50%29.83 "Hg10 mi
5:30 AM72 °FSunny.8 mph50%29.80 "Hg10 mi
5:00 AM72 °FPassing clouds.10 mph47%29.80 "HgN/A
4:30 AM70 °FPassing clouds.6 mph50%29.80 "HgN/A
4:00 AM70 °FPassing clouds.8 mph50%29.80 "HgN/A
3:30 AM70 °FPassing clouds.6 mph50%29.80 "HgN/A
3:00 AM72 °FPassing clouds.6 mph47%29.80 "HgN/A
2:30 AM72 °FPassing clouds.6 mph47%29.80 "HgN/A
2:00 AM72 °FPassing clouds.3 mph47%29.80 "HgN/A
1:30 AM72 °FClear.3 mph47%29.80 "Hg10 mi
1:00 AM73 °FClear.6 mph47%29.80 "Hg10 mi
12:30 AM73 °FClear.8 mph47%29.80 "Hg10 mi
11:30 PM
Fri, May 29
70 °FClear.10 mph53%29.80 "Hg10 mi
11:00 PM70 °FClear.1 mph57%29.77 "Hg10 mi
10:30 PM72 °FClear.No wind53%29.77 "Hg10 mi
10:00 PM75 °FClear.6 mph44%29.77 "Hg10 mi
9:30 PM75 °FSunny.6 mph44%29.77 "Hg10 mi
9:00 PM75 °FSunny.6 mph44%29.77 "Hg10 mi
8:30 PM79 °FSunny.6 mph39%29.74 "Hg10 mi
8:00 PM81 °FSunny.8 mph37%29.74 "Hg10 mi
7:30 PM82 °FSunny.8 mph37%29.74 "Hg10 mi
7:00 PM82 °FSunny.8 mph35%29.74 "Hg10 mi
6:30 PM84 °FSunny.8 mph29%29.74 "Hg10 mi
6:00 PM86 °FSunny.13 mph29%29.74 "Hg10 mi
5:30 PM86 °FPassing clouds.10 mph27%29.74 "HgN/A
5:00 PM88 °FPassing clouds.13 mph27%29.74 "HgN/A
4:30 PM88 °FPassing clouds.13 mph27%29.74 "HgN/A
4:00 PM90 °FPassing clouds.8 mph24%29.74 "HgN/A
3:30 PM90 °FPassing clouds.13 mph27%29.74 "HgN/A
3:00 PM88 °FPassing clouds.8 mph27%29.74 "HgN/A
2:30 PM90 °FPassing clouds.15 mph27%29.74 "HgN/A
2:00 PM88 °FPassing clouds.13 mph29%29.74 "HgN/A
1:30 PM88 °FPassing clouds.13 mph31%29.74 "HgN/A
1:00 PM88 °FPassing clouds.10 mph31%29.74 "HgN/A
12:30 PM86 °FPassing clouds.10 mph33%29.74 "HgN/A
12:00 PM86 °FPassing clouds.8 mph35%29.74 "HgN/A
11:30 AM84 °FSunny.10 mph37%29.74 "Hg10 mi
11:00 AM82 °FSunny.10 mph42%29.74 "Hg10 mi
10:30 AM82 °FPassing clouds.8 mph42%29.74 "HgN/A
10:00 AM81 °FSunny.10 mph42%29.74 "Hg10 mi
9:30 AM79 °FPassing clouds.13 mph45%29.74 "HgN/A
9:00 AM79 °FPassing clouds.10 mph45%29.74 "HgN/A
8:30 AM77 °FPassing clouds.13 mph47%29.74 "HgN/A
8:00 AM75 °FSunny.13 mph50%29.74 "Hg10 mi
7:30 AM75 °FSunny.10 mph47%29.74 "Hg10 mi
7:00 AM73 °FSunny.10 mph50%29.71 "Hg10 mi
Weather by CustomWeather, © 2015

See weather overviewHow to use our weather pages